sat.trackr.live / text

‹ back to catalog

STARLINK-3836

NORAD 52577 · 2022-051AT

PAYLOAD ACTIVE UNKNOWN

§ Identity

Operator
Country
US
Launch date
2022-05-13
Launch site
AFWTR
Launch vehicle
Mass (kg)
RCS (m²)

Purposes: comms

External: N2YO · Heavens-Above · Gunter

§ Orbital elements

Epoch: 2026-09-20T04:54:14.385024Z

Period
93.85 min
Inclination
53.1589°
Eccentricity
0.0001147
Mean motion
15.34390345 rev/d
Perigee alt
461.9 km
Apogee alt
463.5 km
Semi-major
6,840.9 km
B*
2.0095e-5
RAAN
324.7483°
Arg perigee
79.0251°
Mean anomaly
281.0881°
Rev number
24,096

§ Raw data

STARLINK-38361 52577U 22051AT  26263.20433316  .00000303  00000+0  20095-4 0  99922 52577  53.1589 324.7483 0001147  79.0251 281.0881 15.34390345240963

JSON: /api/v1/satellites/52577 · /tle

For live sub-satellite position, see the globe view (requires WebGL).

§ Visibility from observer

Set your observer location to see the next 7 days of passes ≥ 10°. The values pass through the URL so the page stays shareable.

No JS? Fill the form by hand. The geolocation button needs JavaScript.